www.pogodaiklimat.ru

Погода и климат >> Архив погоды >> Россия >> Якутия >> Верхоянский Перевоз


ПОГОДА в Верхоянском Перевозе

  • Прогноз погоды в Верхоянском Перевозе
  • Монитор погоды в Верхоянском Перевозе

АРХИВ ПОГОДЫ в Верхоянском Перевозе

Время (UTC), дата Ветер
(напр.,м/с)
 
Видим.   Явления Облачность Т
(С)
Тd
(С)
f
(%)
Тe
(С)
Тes
(С)
Комфортность P
(гПа)
Po
(гПа)
Тmin
(С)
Tmax
(С)
R
(мм)
R24
(мм)
S
(см)
21 19.03 штиль 0 50 км ясно -37.2 -40.1 74 -37 -37 опасность
обморожения
1023.7 1010.4
00 20.03 штиль 0 50 км ясно -32.4 -35.5 74 -32 -30 опасность
обморожения
1023.5 1010.4 -38.1 36
03 20.03 штиль 0 50 км ясно -23.5 -28.3 65 -24 -17 1024.0 1011.3
06 20.03 СЗ 1 50 км ясно -14.4 -21.5 55 -17 -14 1023.4 1011.2
09 20.03 СЗ 1 50 км 3/0
[Cs]
-13.9 -22.1 50 -16 -16 1023.5 1011.3
12 20.03 штиль 0 50 км ясно -24.3 -29.0 65 -24 -24 1024.9 1012.2 -13.1
15 20.03 штиль 0 50 км ясно -30.0 -33.0 75 -30 -30 1025.2 1012.2
18 20.03 штиль 0 50 км ясно -35.3 -38.4 73 -35 -35 опасность
обморожения
1025.9 1012.5
21 20.03 штиль 0 50 км 3/0
[Ci fib]
-36.6 -39.4 75 -37 -37 опасность
обморожения
1027.1 1013.7
00 21.03 штиль 0 50 км ясно -31.3 -34.3 75 -31 -28 опасность
обморожения
1025.8 1012.6 -37.3 36
03 21.03 З 1 50 км ясно -19.5 -24.4 65 -22 -17 1025.3 1012.8
06 21.03 СЗ 1 50 км ясно -15.0 -21.0 60 -18 -14 1024.7 1012.5
09 21.03 З 1 50 км ясно -13.9 -21.0 55 -16 -16 1024.3 1012.1
12 21.03 штиль 0 50 км ясно -23.1 -28.0 64 -23 -23 1024.9 1012.2 -13.3
15 21.03 штиль 0 50 км ясно -29.3 -32.4 74 -29 -29 1024.2 1011.2
18 21.03 штиль 0 50 км ясно -33.7 -36.6 75 -34 -34 опасность
обморожения
1024.4 1011.2
21 21.03 штиль 0 50 км ясно -36.3 -38.4 81 -36 -36 опасность
обморожения
1024.1 1010.8
00 22.03 штиль 0 50 км ясно -30.5 -33.6 74 -31 -27 опасность
обморожения
1023.8 1010.8 -35.9 36
03 22.03 СЗ 1 50 км ясно -22.1 -26.2 69 -25 -20 1020.9 1008.3
06 22.03 СЗ 1 50 км ясно -13.3 -20.4 55 -16 -12 1018.5 1006.4
09 22.03 З 1 50 км ясно -12.6 -19.8 55 -15 -15 1017.6 1005.6
12 22.03 штиль 0 50 км ясно -23.0 -27.0 70 -23 -23 1017.9 1005.4 -12.3
15 22.03 В 1 50 км ясно -27.5 -30.7 74 -31 -31 опасность
обморожения
1016.6 1003.8
18 22.03 штиль 0 50 км 3/0
[Ci fib]
-31.2 -34.3 74 -31 -31 опасность
обморожения
1016.2 1003.2
21 22.03 В 2 50 км 9/0
[Ac As Cs]
-24.3 -27.5 75 -31 -31 опасность
обморожения
1013.6 1001.2
00 23.03 В 3 50 км 9/0
[Cs]
-21.0 -25.0 70 -29 -27 1010.8 998.5 -31.9 35
03 23.03 В 3 50 км 10/0
[Cs]
-14.8 -20.8 60 -21 -18 1008.6 996.6
06 23.03 В 4 50 км 9/0
[Cs]
-11.5 -17.7 60 -19 -17 1006.2 994.3
09 23.03 В 3 50 км 10/0
[Ac trans Cs]
-11.9 -19.1 55 -18 -18 1005.0 993.1
12 23.03 В 2 50 км 10/0
[Ac As Cs]
-14.4 -20.5 60 -19 -19 1006.3 994.3 -11.4
15 23.03 В 2 50 км 5/0
[Cs]
-15.9 -21.9 60 -21 -21 1006.2 994.1
18 23.03 В 1 50 км 3/0
[Cs]
-18.0 -23.0 65 -21 -21 1006.3 994.1
21 23.03 ЮВ 1 50 км 3/0
[Cs]
-26.1 -29.3 74 -30 -30 1006.0 993.4
00 24.03 штиль 0 50 км 3/0
[Cs]
-20.4 -24.5 70 -20 -17 1006.2 993.9 -27.8 34
03 24.03 ЮВ 1 50 км 3/0
[Ci sp]
-11.1 -20.7 45 -13 -7 1006.5 994.6
06 24.03 ЮВ 1 50 км 3/0
[Cs]
-7.0 -19.2 37 -9 -5 1005.6 994.0
09 24.03 штиль 0 50 км 4/0
[Ci fib]
-8.9 -21.9 34 -9 -9 1007.1 995.4
12 24.03 штиль 0 50 км 3/0
[Ci fib]
-19.5 -27.3 50 -20 -20 1009.2 996.9 -6.9
15 24.03 штиль 0 50 км 3/0
[Ci fib]
-26.1 -31.6 60 -26 -26 1010.1 997.5
18 24.03 штиль 0 50 км ясно -29.6 -33.3 70 -30 -30 1011.1 998.2
21 24.03 штиль 0 50 км 4/0
[Cs]
-31.9 -35.0 74 -32 -32 опасность
обморожения
1011.1 998.3
00 25.03 штиль 0 50 км 3/0
[Ci fib]
-21.7 -24.9 75 -22 -18 1013.4 1001.0 -31.9 34
03 25.03 С 1 50 км 4/0
[Ci fib]
-13.5 -18.7 65 -16 -10 1012.9 1000.8
06 25.03 СЗ 3 50 км 5/0
[Ci fib]
-10.9 -17.2 60 -17 -14 1014.1 1002.2
09 25.03 З 2 50 км 5/0
[Ac lent Ci fib]
-12.8 -19.0 60 -17 -17 1014.8 1002.8
12 25.03 штиль 0 50 км 3/0
[Ci fib]
-18.2 -22.3 70 -18 -18 1015.5 1003.2 -10.3
15 25.03 штиль 0 50 км ясно -24.8 -26.6 85 -25 -25 1015.8 1003.2
18 25.03 штиль 0 50 км ясно -28.6 -31.0 80 -29 -29 1016.3 1003.5
21 25.03 штиль 0 50 км ясно -31.9 -33.7 84 -32 -32 опасность
обморожения
1016.3 1003.3
00 26.03 штиль 0 50 км ясно -24.0 -25.9 84 -24 -20 1016.2 1003.6 -31.9 34
03 26.03 СЗ 1 50 км ясно -17.0 -21.2 70 -20 -13 1015.8 1003.6
06 26.03 СЗ 1 50 км ясно -12.9 -19.0 60 -15 -11 1015.5 1003.5
09 26.03 З 1 50 км ясно -11.1 -19.5 50 -13 -13 1015.1 1004.1
12 26.03 штиль 0 50 км ясно -17.0 -22.0 65 -17 -17 1015.1 1002.9 -10.2
15 26.03 штиль 0 50 км ясно -23.9 -26.4 80 -24 -24 1014.3 1001.8
18 26.03 штиль 0 50 км ясно -27.1 -28.8 85 -27 -27 1014.5 1001.8

 

Местоположение метеостанции Верхоянский Перевоз (Якутия, Россия): широта 63.32 долгота 132.00 высота над уровнем моря 91 м.

В архиве по умолчанию представлена погода в Верхоянском Перевозе за последнюю неделю. Архивные данные за месяц целиком и за предыдущие месяцы, начиная с января 2011 года, Вы можете получить, выбрав интересующий диапазон дат из раскрывающегося списка и нажав кнопку "Ввод!".


*Определитесь, кто Вы:
робот инопланетянин человек

Внимание! Время в таблицах - всемирное. Для получения местного времени необходимо прибавить поправку, которая равна 9 ч.

Смотрите также архив погоды в соседних городах и на ближайших метеорологических станциях:

Погода в Сеген-Кюеле (Якутия, Россия) (113 км)
Погода в Ытык-Кюёле (Якутия, Россия) (130 км)
Погода в Батамае (Якутия, Россия) (131 км)
Погода в Крест-Хальджае (Якутия, Россия) (133 км)
Погода в Намцах (Якутия, Россия) (138 км)
Погода в Чурапче (Якутия, Россия) (147 км)
Погода в Якутске (Якутия, Россия) (191 км)
Погода в Томпо (Якутия, Россия) (200 км)
Погода в Сангаре (Якутия, Россия) (238 км)
Погода в Себян-Кюеле (Якутия, Россия) (240 км)

Пояснения к столбцам:

Ветер - указаны скорость ветра в м/с - средняя за 10 мин, порывы в срок и между сроками (в фигурных скобках) и направление, откуда дует ветер: С - северный, СВ - северо-восточный, В - восточный, ЮВ - юго-восточный, Ю - южный, ЮЗ - юго-западный, З - западный, СЗ - северо-западный.
Видимость - горизонтальная дальность видимости в метрах или километрах. При видимости от 1 до 10 км при отсутствии осадков обычно наблюдается дымка, при ухудшении видимости до 1 км и менее - туман. В сухую погоду видимость может ухудшаться дымом, пылью или мглою.
Явления - указаны атмосферные явления, наблюдавшиеся в срок или в последний час перед сроком; фигурными скобками обозначены явления, наблюдавшиеся между сроками (за 1-3 часа до срока); квадратными скобками обозначены град или гололедные отложения с указанием их диаметра в мм.
Облачность - указаны через наклонную черту общая и нижняя облачность в баллах и высота нижней границы облаков в метрах; квадратными скобками обозначены формы облаков: Ci - перистые, Cs - перисто-слоистые, Cc - перисто-кучевые, Ac - высококучевые, As - высокослоистые, Sc - слоисто-кучевые, Ns - слоисто-дождевые, Cu - кучевые, Cb - кучево-дождевые. Подробнее классификацию облаков см. в Атласе облаков (PDF).
T - Температура воздуха - температура, измеренная на высоте 2 м над землей.
Td - Температура точки росы - температура, при понижении до которой содержащийся в воздухе водяной пар достигнет насыщения.
f - Относительная влажность воздуха - влажноcть воздуха, измеренная на высоте 2 м над землей.
Te - Эффективная температура - температура, которую ощущает одетый по сезону человек в тени. Характеристика душности погоды. При расчете учитывается влияние влажности воздуха и скорости ветра на теплоощущения человека.
Tes - Эффективная температура на солнце - температура, которую ощущает человек, с поправкой на солнечный нагрев. Характеристика знойности погоды. Зависит от высоты солнца над горизонтом, облачности и скорости ветра. Ночью, в пасмурную погоду, а также при ветре 12 м/с и более поправка равна нулю.
P - Атмосферное давление - приведенное к уровню моря атмосферное давление.
Po - Атмосферное давление - измеренное на уровне метеостанции атмосферное давление.
Tmin - Минимальная температура - минимум температуры воздуха на высоте 2 м над землей.
Tmax - Максимальная температура - максимум температуры воздуха на высоте 2 м над землей.
R - Количество осадков - Количество выпавших осадков за период времени, мм. При наведении курсора мыши на число - период времени, за который выпало указанное количество осадков.
R24 - Количество осадков - Количество выпавших осадков за 24 часа, мм.
S - Снежный покров - Высота снежного покрова, см. При наведении курсора мыши на число - состояние снежного покрова и степень покрытия местности в баллах.